User: anonymous   Login
Location: Unspecified
(0.0000°N, 0.0000°E)
Time: 15:07:11
(UTC+00:00)
Language:

USA 234 - Orbit

View from above orbital plane
View from above orbital plane
View from above satellite
View from above satellite

Ground track
Ground track

The orbit data is extracted from the following two-line orbital elements,

1 38109U 12014A   18141.95583084 0.00000000  00000-0  00000-0 0    09
2 38109 122.9926 326.5225 0007000 352.2489   7.7511 13.41409639    00
Epoch (UTC): 21 May 2018 22:56:23
Eccentricity: 0.0007000
inclination: 122.9926°
perigee height: 1099 km
apogee height: 1109 km
right ascension of ascending node: 326.5225°
argument of perigee: 352.2489°
revolutions per day: 13.41409639
mean anomaly at epoch: 7.7511°
orbit number at epoch: 0

The dashed part of the orbit path shows where the satellite is in the earth's shadow,  

DLR